Time,TemperatureF,DewpointF,PressureIn,WindDirection,WindDirectionDegrees,WindSpeedMPH,WindSpeedGustMPH,Humidity,HourlyPrecipIn,Conditions,Clouds,dailyrainin,SoftwareType,DateUTC
2013-01-08 00:05:00,25.6,23.0,30.24,SSW,194,0.0,1.0,89,0.00,,,0.00,weatherlink.com 1.10,2013-01-08 05:05:00,
2013-01-08 00:19:00,25.5,23.0,30.24,SSW,194,0.0,0.0,89,0.00,,,0.00,weatherlink.com 1.10,2013-01-08 05:19:00,
2013-01-08 00:34:00,24.6,22.0,30.24,SSW,194,0.0,0.0,90,0.00,,,0.00,weatherlink.com 1.10,2013-01-08 05:34:00,
2013-01-08 00:49:00,24.9,23.0,30.25,SW,233,0.0,1.0,91,0.00,,,0.00,weatherlink.com 1.10,2013-01-08 05:49:00,
2013-01-08 01:04:00,24.8,23.0,30.25,SW,233,0.0,0.0,91,0.00,,,0.00,weatherlink.com 1.10,2013-01-08 06:04:00,
2013-01-08 01:19:00,24.5,22.0,30.25,SW,233,0.0,1.0,91,0.00,,,0.00,weatherlink.com 1.10,2013-01-08 06:19:00,
2013-01-08 01:34:00,24.3,22.0,30.26,SW,233,0.0,0.0,91,0.00,,,0.00,weatherlink.com 1.10,2013-01-08 06:34:00,
2013-01-08 01:49:00,24.0,22.0,30.26,SW,233,0.0,0.0,91,0.00,,,0.00,weatherlink.com 1.10,2013-01-08 06:49:00,
2013-01-08 02:04:00,23.8,22.0,30.26,SW,233,0.0,0.0,91,0.00,,,0.00,weatherlink.com 1.10,2013-01-08 07:04:00,
2013-01-08 02:19:00,23.9,22.0,30.27,SW,233,0.0,0.0,92,0.00,,,0.00,weatherlink.com 1.10,2013-01-08 07:19:00,
2013-01-08 02:38:00,23.4,21.0,30.27,SW,233,0.0,0.0,91,0.00,,,0.00,weatherlink.com 1.10,2013-01-08 07:38:00,
2013-01-08 02:49:00,23.1,21.0,30.27,SW,233,0.0,0.0,92,0.00,,,0.00,weatherlink.com 1.10,2013-01-08 07:49:00,
2013-01-08 03:04:00,22.8,21.0,30.26,SW,233,0.0,0.0,92,0.00,,,0.00,weatherlink.com 1.10,2013-01-08 08:04:00,
2013-01-08 03:19:00,22.4,21.0,30.26,SW,234,0.0,0.0,92,0.00,,,0.00,weatherlink.com 1.10,2013-01-08 08:19:00,
2013-01-08 03:34:00,23.0,21.0,30.26,SW,233,0.0,0.0,93,0.00,,,0.00,weatherlink.com 1.10,2013-01-08 08:34:00,
2013-01-08 03:49:00,22.8,21.0,30.26,SW,234,0.0,0.0,93,0.00,,,0.00,weatherlink.com 1.10,2013-01-08 08:49:00,
2013-01-08 04:04:00,22.4,21.0,30.26,SW,233,0.0,0.0,93,0.00,,,0.00,weatherlink.com 1.10,2013-01-08 09:04:00,
2013-01-08 04:19:00,22.3,21.0,30.27,SW,233,0.0,0.0,93,0.00,,,0.00,weatherlink.com 1.10,2013-01-08 09:19:00,
2013-01-08 04:34:00,22.8,21.0,30.27,SW,233,0.0,0.0,94,0.00,,,0.00,weatherlink.com 1.10,2013-01-08 09:34:00,
2013-01-08 04:49:00,23.1,22.0,30.27,SW,233,0.0,0.0,94,0.00,,,0.00,weatherlink.com 1.10,2013-01-08 09:49:00,
2013-01-08 05:04:00,23.0,21.0,30.26,SW,233,0.0,0.0,93,0.00,,,0.00,weatherlink.com 1.10,2013-01-08 10:04:00,
2013-01-08 05:19:00,23.1,22.0,30.26,SW,233,0.0,0.0,94,0.00,,,0.00,weatherlink.com 1.10,2013-01-08 10:19:00,
2013-01-08 05:34:00,23.5,22.0,30.27,SW,233,0.0,0.0,94,0.00,,,0.00,weatherlink.com 1.10,2013-01-08 10:34:00,
2013-01-08 05:49:00,23.9,23.0,30.27,SW,234,0.0,1.0,94,0.00,,,0.00,weatherlink.com 1.10,2013-01-08 10:49:00,
2013-01-08 06:04:00,24.5,23.0,30.27,SSW,201,0.0,1.0,94,0.00,,,0.00,weatherlink.com 1.10,2013-01-08 11:04:00,
2013-01-08 06:19:00,24.4,23.0,30.27,SSW,201,0.0,1.0,93,0.00,,,0.00,weatherlink.com 1.10,2013-01-08 11:19:00,
2013-01-08 06:34:00,24.2,23.0,30.27,SSW,201,0.0,0.0,93,0.00,,,0.00,weatherlink.com 1.10,2013-01-08 11:34:00,
2013-01-08 06:49:00,24.0,22.0,30.28,SSW,201,0.0,0.0,93,0.00,,,0.00,weatherlink.com 1.10,2013-01-08 11:49:00,
2013-01-08 07:04:00,24.0,23.0,30.28,SSW,201,0.0,0.0,94,0.00,,,0.00,weatherlink.com 1.10,2013-01-08 12:04:00,
2013-01-08 07:19:00,24.0,22.0,30.29,SSW,201,0.0,0.0,93,0.00,,,0.00,weatherlink.com 1.10,2013-01-08 12:19:00,
2013-01-08 07:34:00,24.2,23.0,30.30,SSW,201,0.0,1.0,93,0.00,,,0.00,weatherlink.com 1.10,2013-01-08 12:34:00,
2013-01-08 07:49:00,24.2,23.0,30.30,SSW,201,0.0,0.0,93,0.00,,,0.00,weatherlink.com 1.10,2013-01-08 12:49:00,
2013-01-08 08:04:00,24.3,23.0,30.31,SSW,201,0.0,0.0,93,0.00,,,0.00,weatherlink.com 1.10,2013-01-08 13:04:00,
2013-01-08 08:19:00,24.5,23.0,30.32,SSW,202,0.0,0.0,94,0.00,,,0.00,weatherlink.com 1.10,2013-01-08 13:19:00,
2013-01-08 08:34:00,25.0,24.0,30.32,SSW,201,0.0,0.0,94,0.00,,,0.00,weatherlink.com 1.10,2013-01-08 13:34:00,
2013-01-08 08:49:00,25.7,24.0,30.32,SSW,201,0.0,0.0,94,0.00,,,0.00,weatherlink.com 1.10,2013-01-08 13:49:00,
2013-01-08 09:04:00,26.2,25.0,30.33,SSW,201,0.0,0.0,93,0.00,,,0.00,weatherlink.com 1.10,2013-01-08 14:04:00,
2013-01-08 09:19:00,27.9,26.0,30.32,SSW,201,0.0,0.0,94,0.00,,,0.00,weatherlink.com 1.10,2013-01-08 14:19:00,
2013-01-08 09:34:00,29.9,28.0,30.33,SSW,200,0.0,1.0,91,0.00,,,0.00,weatherlink.com 1.10,2013-01-08 14:34:00,
2013-01-08 09:49:00,31.3,28.0,30.33,SSW,202,0.0,0.0,88,0.00,,,0.00,weatherlink.com 1.10,2013-01-08 14:49:00,
2013-01-08 10:04:00,32.9,29.0,30.32,SSW,201,0.0,1.0,84,0.00,,,0.00,weatherlink.com 1.10,2013-01-08 15:04:00,
2013-01-08 10:19:00,34.4,29.0,30.33,SSW,200,0.0,1.0,82,0.00,,,0.00,weatherlink.com 1.10,2013-01-08 15:19:00,
2013-01-08 10:34:00,36.1,30.0,30.32,NW,304,0.0,1.0,78,0.00,,,0.00,weatherlink.com 1.10,2013-01-08 15:34:00,
2013-01-08 10:49:00,37.6,31.0,30.32,West,262,1.0,2.0,76,0.00,,,0.00,weatherlink.com 1.10,2013-01-08 15:49:00,
2013-01-08 11:04:00,39.9,32.0,30.32,ESE,109,0.0,1.0,74,0.00,,,0.00,weatherlink.com 1.10,2013-01-08 16:04:00,
2013-01-08 11:19:00,42.8,33.0,30.31,West,281,0.0,4.0,69,0.00,,,0.00,weatherlink.com 1.10,2013-01-08 16:19:00,
2013-01-08 11:34:00,45.4,34.0,30.30,WNW,303,2.0,9.0,64,0.00,,,0.00,weatherlink.com 1.10,2013-01-08 16:34:00,
2013-01-08 11:49:00,46.7,34.0,30.30,SSW,197,4.0,8.0,62,0.00,,,0.00,weatherlink.com 1.10,2013-01-08 16:49:00,
2013-01-08 12:04:00,47.1,34.0,30.29,WSW,255,3.0,9.0,61,0.00,,,0.00,weatherlink.com 1.10,2013-01-08 17:04:00,
2013-01-08 12:19:00,47.6,34.0,30.28,WSW,253,2.0,8.0,60,0.00,,,0.00,weatherlink.com 1.10,2013-01-08 17:19:00,
2013-01-08 12:34:00,49.6,35.0,30.27,West,266,4.0,8.0,58,0.00,,,0.00,weatherlink.com 1.10,2013-01-08 17:34:00,
2013-01-08 12:50:00,50.2,34.0,30.26,West,272,5.0,9.0,55,0.00,,,0.00,weatherlink.com 1.10,2013-01-08 17:50:00,
2013-01-08 13:05:00,50.8,35.0,30.26,SW,214,5.0,16.0,55,0.00,,,0.00,weatherlink.com 1.10,2013-01-08 18:05:00,
2013-01-08 13:20:00,51.7,35.0,30.25,SW,235,7.0,8.0,53,0.00,,,0.00,weatherlink.com 1.10,2013-01-08 18:20:00,
2013-01-08 13:35:00,52.4,35.0,30.25,SW,236,4.0,8.0,52,0.00,,,0.00,weatherlink.com 1.10,2013-01-08 18:35:00,
2013-01-08 13:50:00,52.7,35.0,30.24,West,281,9.0,12.0,51,0.00,,,0.00,weatherlink.com 1.10,2013-01-08 18:50:00,
2013-01-08 14:05:00,53.0,35.0,30.23,SW,229,1.0,10.0,51,0.00,,,0.00,weatherlink.com 1.10,2013-01-08 19:05:00,
2013-01-08 14:20:00,53.8,35.0,30.23,WSW,257,1.0,10.0,50,0.00,,,0.00,weatherlink.com 1.10,2013-01-08 19:20:00,
2013-01-08 14:35:00,54.4,35.0,30.23,West,276,3.0,9.0,48,0.00,,,0.00,weatherlink.com 1.10,2013-01-08 19:35:00,
2013-01-08 14:50:00,54.4,35.0,30.23,West,276,3.0,10.0,48,0.00,,,0.00,weatherlink.com 1.10,2013-01-08 19:50:00,
2013-01-08 15:05:00,54.3,35.0,30.23,West,266,5.0,10.0,48,0.00,,,0.00,weatherlink.com 1.10,2013-01-08 20:05:00,
2013-01-08 15:20:00,54.6,35.0,30.23,SSW,200,2.0,9.0,48,0.00,,,0.00,weatherlink.com 1.10,2013-01-08 20:20:00,
2013-01-08 15:35:00,54.3,35.0,30.23,SW,235,0.0,8.0,48,0.00,,,0.00,weatherlink.com 1.10,2013-01-08 20:35:00,
2013-01-08 15:50:00,54.2,34.0,30.23,WNW,284,4.0,13.0,47,0.00,,,0.00,weatherlink.com 1.10,2013-01-08 20:50:00,
2013-01-08 16:05:00,54.1,34.0,30.22,SSW,208,5.0,10.0,47,0.00,,,0.00,weatherlink.com 1.10,2013-01-08 21:05:00,
2013-01-08 16:20:00,53.8,35.0,30.23,SSE,165,1.0,6.0,49,0.00,,,0.00,weatherlink.com 1.10,2013-01-08 21:20:00,
2013-01-08 16:35:00,54.5,34.0,30.22,SW,224,1.0,6.0,47,0.00,,,0.00,weatherlink.com 1.10,2013-01-08 21:35:00,
2013-01-08 16:50:00,54.0,35.0,30.23,WSW,257,2.0,6.0,49,0.00,,,0.00,weatherlink.com 1.10,2013-01-08 21:50:00,
2013-01-08 17:05:00,53.2,35.0,30.23,WSW,242,1.0,4.0,50,0.00,,,0.00,weatherlink.com 1.10,2013-01-08 22:05:00,
2013-01-08 17:20:00,51.5,35.0,30.22,SSW,212,1.0,2.0,53,0.00,,,0.00,weatherlink.com 1.10,2013-01-08 22:20:00,
2013-01-08 17:35:00,49.3,34.0,30.22,South,173,0.0,2.0,57,0.00,,,0.00,weatherlink.com 1.10,2013-01-08 22:35:00,
2013-01-08 17:50:00,46.8,34.0,30.22,South,174,0.0,1.0,62,0.00,,,0.00,weatherlink.com 1.10,2013-01-08 22:50:00,
2013-01-08 18:05:00,45.1,34.0,30.23,South,173,0.0,1.0,66,0.00,,,0.00,weatherlink.com 1.10,2013-01-08 23:05:00,
2013-01-08 18:20:00,43.7,34.0,30.23,South,172,1.0,1.0,69,0.00,,,0.00,weatherlink.com 1.10,2013-01-08 23:20:00,
2013-01-08 18:35:00,43.6,34.0,30.23,South,180,0.0,1.0,69,0.00,,,0.00,weatherlink.com 1.10,2013-01-08 23:35:00,
2013-01-08 18:50:00,43.2,34.0,30.23,South,177,1.0,1.0,70,0.00,,,0.00,weatherlink.com 1.10,2013-01-08 23:50:00,
2013-01-08 19:05:00,42.8,34.0,30.23,South,170,0.0,1.0,71,0.00,,,0.00,weatherlink.com 1.10,2013-01-09 00:05:00,
2013-01-08 19:20:00,42.2,34.0,30.23,SSE,153,1.0,1.0,72,0.00,,,0.00,weatherlink.com 1.10,2013-01-09 00:20:00,
2013-01-08 19:35:00,42.5,34.0,30.24,SSE,159,0.0,1.0,72,0.00,,,0.00,weatherlink.com 1.10,2013-01-09 00:35:00,
2013-01-08 19:50:00,42.0,34.0,30.23,SSE,160,0.0,0.0,72,0.00,,,0.00,weatherlink.com 1.10,2013-01-09 00:50:00,
2013-01-08 20:05:00,40.3,33.0,30.23,SSE,160,0.0,0.0,76,0.00,,,0.00,weatherlink.com 1.10,2013-01-09 01:05:00,
2013-01-08 20:21:00,39.5,33.0,30.22,SSE,160,0.0,1.0,78,0.00,,,0.00,weatherlink.com 1.10,2013-01-09 01:21:00,
2013-01-08 20:36:00,38.7,33.0,30.22,SSE,160,0.0,0.0,79,0.00,,,0.00,weatherlink.com 1.10,2013-01-09 01:36:00,
2013-01-08 20:51:00,38.3,33.0,30.22,SSE,160,0.0,0.0,81,0.00,,,0.00,weatherlink.com 1.10,2013-01-09 01:51:00,
2013-01-08 21:06:00,38.2,33.0,30.22,SSE,160,0.0,1.0,81,0.00,,,0.00,weatherlink.com 1.10,2013-01-09 02:06:00,
2013-01-08 21:21:00,38.5,33.0,30.22,SSE,160,0.0,0.0,81,0.00,,,0.00,weatherlink.com 1.10,2013-01-09 02:21:00,
2013-01-08 21:36:00,38.0,33.0,30.21,SSE,160,0.0,0.0,82,0.00,,,0.00,weatherlink.com 1.10,2013-01-09 02:36:00,
2013-01-08 21:51:00,37.2,33.0,30.21,SSE,160,0.0,0.0,83,0.00,,,0.00,weatherlink.com 1.10,2013-01-09 02:51:00,
2013-01-08 22:06:00,37.1,33.0,30.21,SSE,160,0.0,0.0,84,0.00,,,0.00,weatherlink.com 1.10,2013-01-09 03:06:00,
2013-01-08 22:21:00,36.7,33.0,30.21,SSE,160,0.0,0.0,85,0.00,,,0.00,weatherlink.com 1.10,2013-01-09 03:21:00,
2013-01-08 22:36:00,36.4,32.0,30.22,SSE,160,0.0,0.0,85,0.00,,,0.00,weatherlink.com 1.10,2013-01-09 03:36:00,
2013-01-08 22:51:00,36.1,32.0,30.22,SSE,160,0.0,0.0,85,0.00,,,0.00,weatherlink.com 1.10,2013-01-09 03:51:00,
2013-01-08 23:06:00,36.0,32.0,30.23,SSE,160,0.0,0.0,86,0.00,,,0.00,weatherlink.com 1.10,2013-01-09 04:06:00,
2013-01-08 23:21:00,36.0,33.0,30.22,SSE,160,0.0,1.0,87,0.00,,,0.00,weatherlink.com 1.10,2013-01-09 04:21:00,
2013-01-08 23:36:00,35.9,32.0,30.22,SSE,160,0.0,0.0,86,0.00,,,0.00,weatherlink.com 1.10,2013-01-09 04:36:00,
2013-01-08 23:51:00,35.9,32.0,30.22,SSE,161,0.0,0.0,87,0.00,,,0.00,weatherlink.com 1.10,2013-01-09 04:51:00,